Preview of NWS' New Version of Forecast
This preview is not operational and should not be used for support decisions.

Regional Weather Roundup (RWR)

Issued by National Weather Service (NWS)

                            
000
ASUS46 KSEW 230610
RWRWA 

WASHINGTON REGIONAL WEATHER ROUNDUP
NATIONAL WEATHER SERVICE SEATTLE WA
1100 PM PDT SAT JUN 22 2019

NOTE:"FAIR" INDICATES FEW OR NO CLOUDS BELOW 12,000 FEET WITH NO 
SIGNIFICANT WEATHER AND/OR OBSTRUCTIONS TO VISIBILITY.

WAZ507-509-555>559-230700-
SEATTLE, TACOMA, EVERETT, AND VICINITY
  
CITY           SKY/WX    TMP DP  RH WIND       PRES   REMARKS
EVERETT        CLOUDY    54  51  90 N6        30.19S                  
6HR MIN TEMP:  54; 6HR MAX TEMP:  62;                                

BOEING FIELD   CLOUDY    62  50  64 NW3       30.17F                  
6HR MIN TEMP:  62; 6HR MAX TEMP:  67;                                

RENTON         CLOUDY    62  53  72 SW6       30.17F HAZE             
6HR MIN TEMP:  62; 6HR MAX TEMP:  65;                                

SEATAC AIRPORT CLOUDY    60  52  74 S7        30.18F                  
6HR MIN TEMP:  60; 6HR MAX TEMP:  66; 6HR PCP: TRACE;                

JBLM-MCCHORD   CLOUDY    60  57  90 W7        30.18F                  
6HR MIN TEMP:  60; 6HR MAX TEMP:  68;                                

PUYALLUP       CLOUDY    59  55  88 W3        30.19S                  
BREMERTON      MOCLDY    57  52  83 E3        30.18S                  
6HR MIN TEMP:  57; 6HR MAX TEMP:  67;                                

JBLM-FT LEWIS  CLOUDY    59  58  94 S5        30.18S                  
6HR MIN TEMP:  59; 6HR MAX TEMP:  67;                                

TACOMA NARROWS CLOUDY    58  52  80 S9        30.18F                  
6HR MIN TEMP:  58; 6HR MAX TEMP:  65;                                

$$
 
WAZ001-503-506-510-514-515-230700-
NORTH INTERIOR
  
CITY           SKY/WX    TMP DP  RH WIND       PRES   REMARKS
BELLINGHAM     MOCLDY    57  50  77 S13G25    30.14S                  
6HR MIN TEMP:  57; 6HR MAX TEMP:  64;                                

FRIDAY HARBOR  CLOUDY    54  49  83 W9G17     30.15S                  
6HR MIN TEMP:  54; 6HR MAX TEMP:  64;                                

EASTSOUND      CLOUDY    55  52  88 S13       30.12F                  
PORT ANGELES   PTCLDY    51  49  92 W9        30.20S                  
6HR MIN TEMP:  51; 6HR MAX TEMP:  58;                                

EDIZ HOOK      FAIR      53  49  88 W18       30.19S                  
6HR MIN TEMP:  53; 6HR MAX TEMP:  57;                                

PORT TOWNSEND  CLOUDY    54  52  94 NW5       30.19R                  
NAS WHIDBEY    MOCLDY    57  49  74 SW13G21   30.23R                  
6HR MIN TEMP:  57; 6HR MAX TEMP:  65;                                

ARLINGTON      CLOUDY    57  52  83 NW3       30.19S                  
6HR MIN TEMP:  57; 6HR MAX TEMP:  64;                                

BURLINGTON     CLOUDY    57  52  82 S8        30.19R                  
$$
 
WAZ020-022-039-040-504-511-512-230700-
SOUTHWEST INTERIOR
  
CITY           SKY/WX    TMP DP  RH WIND       PRES   REMARKS
SHELTON        PTCLDY    60  51  72 W12       30.16S                  
6HR MIN TEMP:  58; 6HR MAX TEMP:  71;                                

OLYMPIA        CLOUDY    59  51  75 W8        30.19S                  
6HR MIN TEMP:  59; 6HR MAX TEMP:  68;                                

CHEHALIS       CLOUDY    59  55  88 SW7       30.21S                  
KELSO          CLOUDY    59  54  83 CALM      30.23S                  
6HR MIN TEMP:  59; 6HR MAX TEMP:  66;                                

VANCOUVER      MOCLDY    61  51  70 NW7       30.21S                  
6HR MIN TEMP:  61; 6HR MAX TEMP:  72;                                

SCAPPOOSE, OR  MOCLDY    59  51  75 NW3       30.22R                  
6HR MIN TEMP:  59; 6HR MAX TEMP:  72;                                

PORTLAND, OR   MOCLDY    62  51  67 NW9       30.21S                  
6HR MIN TEMP:  62; 6HR MAX TEMP:  73; 6HR PCP: TRACE;                

$$
 
WAZ021-516-517-230700-
WASHINGTON COAST
  
CITY           SKY/WX    TMP DP  RH WIND       PRES   REMARKS
FORKS          CLOUDY    53  49  86 NW5       30.24F                  
6HR MIN TEMP:  53; 6HR MAX TEMP:  59; 6HR PCP: TRACE;                

HOQUIAM        MOCLDY    54  52  93 NW13G20   30.24R                  
6HR MIN TEMP:  54; 6HR MAX TEMP:  59;                                

ASTORIA, OR    CLOUDY    56  54  93 NW15      30.25R                  
6HR MIN TEMP:  56; 6HR MAX TEMP:  60; 6HR PCP:  0.03;                

$$
 
WAZ019-023-024-040-567>569-230700-
CASCADE MOUNTAINS AND COLUMBIA GORGE
  
CITY           SKY/WX    TMP DP  RH WIND       PRES   REMARKS
STAMPEDE PASS  CLOUDY    46  43  89 VRB7      30.17S                  
6HR MIN TEMP:  46; 6HR MAX TEMP:  55;                                

TROUTDALE, OR  MOCLDY    62  51  67 NW6       30.21S                  
6HR MIN TEMP:  62; 6HR MAX TEMP:  71;                                

HOOD RIVER, OR PTCLDY    63  46  55 W5        30.13S                  
THE DALLES, OR MOCLDY    65  47  52 W9G20     30.07F                  
6HR MIN TEMP:  65; 6HR MAX TEMP:  77;                                

$$

WAZ026-027-041>044-520-521-230700-
EAST SLOPES
  
CITY           SKY/WX    TMP DP  RH WIND       PRES   REMARKS
OMAK           CLOUDY    67  39  35 NW10      29.93R                  
6HR MIN TEMP:  64; 6HR MAX TEMP:  82;                                

WENATCHEE      CLEAR     64  39  39 W16G29    29.99R                  
6HR MIN TEMP:  64; 6HR MAX TEMP:  81;                                

ELLENSBURG     PTCLDY    58  44  60 NW28G37   30.03F                  
6HR MIN TEMP:  58; 6HR MAX TEMP:  75;                                

YAKIMA         PTCLDY    64  43  46 NW13      30.03S                  
6HR MIN TEMP:  64; 6HR MAX TEMP:  84;                                

SUNNYSIDE ARPT PTCLDY    65  45  47 W16G25    29.99                   
6HR MIN TEMP:  65; 6HR MAX TEMP:  82;                                

YAKIMA TC      FAIR      62  42  48 NW15G28   30.02F                  
6HR MIN TEMP:  62; 6HR MAX TEMP:  82;                                

$$

WAZ028-034-035-230700-
COLUMBIA BASIN
  
CITY           SKY/WX    TMP DP  RH WIND       PRES   REMARKS
EPHRATA        CLEAR     66  35  31 NW15G22   29.93S                  
6HR MIN TEMP:  66; 6HR MAX TEMP:  81;                                

MOSES LAKE     CLEAR     66  40  38 W8        29.95S                  
6HR MIN TEMP:  66; 6HR MAX TEMP:  83;                                

PASCO          MOCLDY    70  43  37 NW25G32   29.96S                  
6HR MIN TEMP:  70; 6HR MAX TEMP:  86;                                

RICHLAND ARPT  PTCLDY    66  45  45 NW7       29.98R                  
6HR MIN TEMP:  66; 6HR MAX TEMP:  87;                                

HERMISTON, OR  PTCLDY    65  48  54 SW20G29   30.00R                  
6HR MIN TEMP:  65; 6HR MAX TEMP:  85;                                

$$

WAZ036>038-230700-
NORTHEAST WASHINGTON
  
CITY           SKY/WX    TMP DP  RH WIND       PRES   REMARKS
SPOKANE GEIGER MOCLDY    64  43  46 S8        29.96F                  
6HR MIN TEMP:  64; 6HR MAX TEMP:  75;                                

SPOKANE FELTS  MOCLDY    62  47  57 NE5       29.95F                  
6HR MIN TEMP:  62; 6HR MAX TEMP:  77;                                

FAIRCHILD AFB  PTCLDY    58  45  62 S9        29.96F                  
6HR MIN TEMP:  58; 6HR MAX TEMP:  73;                                

COEURDALENE,ID MOCLDY    62  49  62 S8        29.97F                  
6HR MIN TEMP:  61; 6HR MAX TEMP:  71;                                

DEER PARK      MOCLDY    56  45  66 MISG      29.95F                  
6HR MIN TEMP:  55; 6HR MAX TEMP:  75;                                

$$

WAZ029>033-230700-
SOUTHEAST WASHINGTON
  
CITY           SKY/WX    TMP DP  RH WIND       PRES   REMARKS
PULLMAN        PTCLDY    57  48  72 CALM      30.02F                  
6HR MIN TEMP:  57; 6HR MAX TEMP:  73;                                

LEWISTON, ID   PTCLDY    67  50  54 CALM      29.96F                  
6HR MIN TEMP:  67; 6HR MAX TEMP:  79;                                

WALLA WALLA    MOCLDY    68  45  43 S14G21    30.01R                  
6HR MIN TEMP:  67; 6HR MAX TEMP:  80;                                

PENDLETON, OR  CLEAR     63  44  50 W25G39    30.00S                  
6HR MIN TEMP:  63; 6HR MAX TEMP:  81;                                

$$